Jackson, MI

6:04 AM EDT on October 20, 2017 (GMT -0400)
Jackson County-Reynolds

Weather History for KJXN - October, 2012

Change the Weather History Date:

Thursday, October 4, 2012

  Actual Average Record
Temperature  
Mean Temperature 65 °F 54 °F  
Max Temperature 76 °F 65 °F 90 °F (1951)
Min Temperature 54 °F 44 °F 28 °F (1965)
Degree Days  
Heating Degree Days 0 11  
Month to date heating degree days 22 43  
Since 1 July heating degree days 207 231  
Cooling Degree Days 0 0  
Month to date cooling degree days 0 3  
Year to date cooling degree days 868 589  
Growing Degree Days 14 (Base 50)    
Moisture  
Dew Point 51 °F    
Average Humidity 61    
Maximum Humidity 83    
Minimum Humidity 38    
Precipitation  
Precipitation 0.17 in 0.10 in 0.78 in (2001)
Month to date precipitation 0.22 0.39  
Year to date precipitation 19.92 24.79  
Sea Level Pressure  
Sea Level Pressure 30.05 in    
Wind  
Wind Speed 9 mph (SW)    
Max Wind Speed 21 mph    
Max Gust Speed 28 mph    
Visibility 10 miles    
Events Rain    
T = Trace of Precipitation, MM = Missing Value Source: NWS Daily Summary

Daily Weather History Graph

Daily Weather History Graph

Search for Another Location

Airport or City:

Trip Planner

Search our weather history database for the weather conditions in past years. The results will help you decide how hot, cold, wet, or windy it might be!

Date:

Astronomy

Oct. 04, 2012 Rise Set
Actual Time 7:38 AM EDT 7:13 PM EDT
Civil Twilight 7:10 AM EDT 7:41 PM EDT
Nautical Twilight 6:38 AM EDT 8:13 PM EDT
Astronomical Twilight 6:05 AM EDT 8:46 PM EDT
Moon 9:43 PM EDT (10/4) 12:00 PM EDT (10/4)
Length of Visible Light 12h 30m
Length of Day
11h 34m
Waning Gibbous, 82% of the Moon is Illuminated
Oct 4
Waning Gibbous
Oct 8
Last Quarter
Oct 15
New
Oct 21
First Quarter
Oct 29
Full

Hourly Weather History & Observations

Time (EDT) Temp. Dew Point Humidity Pressure Visibility Wind Dir Wind Speed Gust Speed Precip Events Conditions
12:56 AM 60.1 °F 51.1 °F 72% 30.06 in 10.0 mi South 8.1 mph - N/A   Overcast
1:56 AM 59.0 °F 51.1 °F 75% 30.06 in 10.0 mi South 6.9 mph - N/A   Overcast
2:56 AM 57.0 °F 50.0 °F 77% 30.06 in 10.0 mi SSW 5.8 mph - N/A   Partly Cloudy
3:56 AM 55.9 °F 50.0 °F 80% 30.06 in 10.0 mi SSW 5.8 mph - N/A   Clear
4:56 AM 57.9 °F 50.0 °F 75% 30.06 in 10.0 mi SSW 9.2 mph - N/A   Mostly Cloudy
5:56 AM 55.9 °F 50.0 °F 80% 30.06 in 10.0 mi SW 5.8 mph - N/A   Clear
6:56 AM 54.0 °F 48.9 °F 83% 30.08 in 10.0 mi SW 4.6 mph - N/A   Clear
7:56 AM 55.0 °F 50.0 °F 83% 30.08 in 10.0 mi SW 6.9 mph - N/A   Clear
8:56 AM 57.0 °F 51.1 °F 81% 30.08 in 10.0 mi WSW 9.2 mph - N/A   Mostly Cloudy
9:56 AM 59.0 °F 52.0 °F 78% 30.09 in 10.0 mi WSW 9.2 mph - N/A   Mostly Cloudy
10:56 AM 64.0 °F 52.0 °F 65% 30.09 in 10.0 mi SW 6.9 mph - N/A   Mostly Cloudy
11:56 AM 70.0 °F 52.0 °F 53% 30.09 in 10.0 mi WSW 9.2 mph - N/A   Mostly Cloudy
12:56 PM 72.0 °F 50.0 °F 46% 30.08 in 10.0 mi SW 18.4 mph 23.0 mph N/A   Clear
1:56 PM 73.9 °F 50.0 °F 43% 30.06 in 10.0 mi SSW 17.3 mph 21.9 mph N/A   Clear
2:56 PM 75.0 °F 50.0 °F 41% 30.04 in 10.0 mi SW 10.4 mph 19.6 mph N/A   Clear
3:56 PM 75.0 °F 51.1 °F 43% 30.03 in 10.0 mi SSW 13.8 mph - N/A   Clear
4:56 PM 75.0 °F 48.9 °F 40% 30.03 in 10.0 mi WSW 16.1 mph 21.9 mph N/A   Partly Cloudy
5:56 PM 75.0 °F 48.0 °F 38% 30.03 in 10.0 mi SW 16.1 mph 20.7 mph N/A   Clear
6:56 PM 72.0 °F 48.9 °F 44% 30.01 in 10.0 mi SSW 9.2 mph - N/A   Scattered Clouds
7:56 PM 69.1 °F 50.0 °F 51% 30.00 in 10.0 mi South 6.9 mph - N/A   Scattered Clouds
8:56 PM 70.0 °F 50.0 °F 49% 30.00 in 10.0 mi SSW 10.4 mph - N/A   Clear
10:56 PM 62.1 °F 59.0 °F 90% 30.04 in 7.0 mi WSW 10.4 mph - 0.10 in Rain Light Rain
11:56 PM 61.0 °F 60.1 °F 97% 30.04 in 4.0 mi West 6.9 mph - 0.03 in Rain Light Rain